This is the latest recevied weather packets stored in our database for station/object W6MAF. If no packets are shown the sender has not sent any weather packets the latest 10 day(s).
| Time | Temp. | Humidity | Pressure | Rain* | Wind** | Luminosity | Snow |
|---|---|---|---|---|---|---|---|
| 1788517287 | 13.89° C | 50% | - | 0 mm | 5.81 m/s, 222° | - | - |
| 1788516989 | 13.89° C | 48% | - | 0 mm | 7.6 m/s, 235° | - | - |
| 1788516692 | 13.89° C | 47% | - | 0 mm | 4.92 m/s, 222° | - | - |
| 1788516394 | 13.89° C | 46% | - | 0 mm | 5.81 m/s, 212° | - | - |
| 1788516096 | 13.89° C | 45% | - | 0 mm | 5.36 m/s, 214° | - | - |
| 1788515795 | 13.89° C | 44% | - | 0 mm | 6.26 m/s, 211° | - | - |
| 1788515498 | 14.44° C | 44% | - | 0 mm | 5.36 m/s, 215° | - | - |
| 1788515200 | 14.44° C | 44% | - | 0 mm | 4.47 m/s, 217° | - | - |
| 1788514902 | 14.44° C | 43% | - | 0 mm | 4.92 m/s, 214° | - | - |
| 1788514605 | 14.44° C | 43% | - | 0 mm | 5.36 m/s, 210° | - | - |
| 1788514308 | 14.44° C | - | - | - | 6.26 m/s, 211° | - | - |
| 1788514308 | 14.44° C | - | - | - | 6.26 m/s, 211° | - | - |
| 1788514307 | 14.44° C | 43% | - | 0 mm | 6.26 m/s, 211° | - | - |
| 1788514006 | 14.44° C | 43% | - | 0 mm | 5.81 m/s, 207° | - | - |
| 1788513708 | 14.44° C | 44% | - | 0 mm | 5.36 m/s, 219° | - | - |
| 1788513410 | 14.44° C | 44% | - | 0 mm | 5.81 m/s, 228° | - | - |
| 1788513113 | 14.44° C | 45% | - | 0 mm | 5.81 m/s, 219° | - | - |
| 1788512815 | 14.44° C | 45% | - | 0 mm | 6.26 m/s, 200° | - | - |
| 1788512517 | 14.44° C | 45% | - | 0 mm | 5.36 m/s, 215° | - | - |
| 1788512216 | 13.89° C | 45% | - | 0 mm | 4.92 m/s, 205° | - | - |
| 1788511919 | 14.44° C | 45% | - | 0 mm | 4.47 m/s, 217° | - | - |
| 1788511621 | 14.44° C | 45% | - | 0 mm | 5.36 m/s, 190° | - | - |
| 1788511323 | 14.44° C | 45% | - | 0 mm | 4.92 m/s, 214° | - | - |
| 1788511026 | 14.44° C | 45% | - | 0 mm | 6.26 m/s, 221° | - | - |
| 1788510728 | 14.44° C | 44% | - | 0 mm | 6.26 m/s, 221° | - | - |
* Rain latest hour (hover to see other rain measurements)
** Current wind speed in m/s (hover to see current wind gust speed)